Wind_Speed
25 27 29 31 32 33 34 34 34 33 33 34 35 35 34 34 34 36 37 37 38 39 39 40 40 40 40 40 39 39 38 38 37 37 36 35 34 35 35 36 37 37 38 38 39 40 41 43 44 45 45 46 48 48 47 46 46 46 45 45 43 43 47 51 57 62 59 54 53 52 53 55 56 54 54 56 57 56 56 56 58 59 58 56 53
28 31 33 35 35 36 36 35 34 34 34 35 36 37 36 35 35 35 34 35 36 38 39 40 41 42 42 42 41 41 41 41 41 40 39 38 36 35 35 36 37 37 38 39 39 39 40 42 43 43 43 45 47 47 46 46 47 47 49 49 46 43 45 49 54 59 57 53 52 50 50 52 55 56 57 59 60 58 58 58 59 60 59 57 54
30 34 37 39 40 41 41 38 36 36 36 36 37 37 38 37 36 35 33 33 34 35 36 38 40 41 42 43 43 42 42 43 43 42 41 40 39 38 36 36 37 38 39 39 39 39 41 42 43 42 43 45 46 46 47 47 48 50 53 56 54 50 48 50 53 56 57 58 57 55 55 56 57 58 59 60 61 61 60 60 60 60 60 58 55
33 37 40 42 43 44 43 40 40 39 39 39 38 38 38 37 36 35 33 33 34 34 35 36 38 39 40 41 42 43 43 43 43 43 42 42 41 40 39 38 38 39 39 40 40 40 42 43 43 42 43 45 47 47 48 48 49 51 54 56 58 56 54 55 57 59 63 66 66 62 61 61 61 61 61 62 63 63 63 62 61 61 61 59 56
38 41 43 45 46 46 44 42 42 42 41 41 40 39 37 36 36 35 34 34 34 34 35 36 37 37 38 38 40 41 42 43 43 42 42 41 41 41 41 41 40 40 40 41 41 42 43 43 43 43 44 46 47 48 48 48 49 50 52 53 54 55 57 59 61 65 68 70 69 67 66 66 66 64 63 63 64 64 64 62 61 62 62 61 58
42 45 47 49 49 48 46 44 43 43 43 42 42 40 38 36 36 35 35 35 34 34 35 36 36 37 36 37 37 38 39 41 42 41 40 40 40 41 42 42 42 42 43 43 43 44 44 45 44 44 45 47 48 48 49 49 49 50 51 51 51 53 57 60 63 67 68 68 69 70 70 68 66 65 65 65 65 63 62 61 61 63 63 61 57
46 48 50 51 51 49 47 45 43 43 42 42 42 40 39 37 37 36 36 36 35 35 36 36 37 37 37 37 37 38 39 40 41 41 41 40 41 41 42 42 43 43 44 45 45 46 46 46 46 47 47 48 48 49 49 49 50 50 51 50 50 54 58 62 65 67 68 68 69 71 69 63 61 63 66 69 67 64 62 63 64 65 63 60 54
50 51 52 52 51 49 46 45 43 42 41 41 40 40 39 38 38 37 37 37 37 37 37 38 38 39 39 40 40 41 42 43 43 42 42 41 41 41 42 42 43 44 44 46 47 48 48 49 49 49 49 49 49 49 49 50 50 51 51 51 52 54 58 61 64 65 66 69 68 65 64 60 57 59 63 67 68 66 64 65 67 67 63 58 53
52 53 53 51 49 47 46 45 43 42 40 39 39 39 39 39 39 38 38 38 39 39 40 40 40 40 41 41 42 42 43 43 43 42 42 41 41 42 42 42 43 44 45 46 48 49 50 50 51 51 51 51 50 50 50 50 51 52 52 52 53 55 57 60 62 62 63 67 67 63 62 59 56 57 60 62 64 64 63 65 67 66 62 56 52
53 52 51 48 47 46 45 44 43 42 40 39 39 39 38 39 39 39 39 40 40 41 41 41 41 41 41 41 41 41 41 42 42 42 42 42 42 43 44 44 44 45 46 47 48 50 51 51 52 53 53 54 53 53 52 51 52 53 53 53 55 56 56 57 59 60 63 66 65 63 62 62 60 61 61 62 63 63 64 66 66 65 61 55 51
51 49 47 45 44 44 43 43 42 41 41 40 40 39 39 39 39 40 40 40 40 41 41 40 40 40 41 41 41 41 40 41 42 43 43 44 45 45 46 46 47 48 48 49 49 50 51 52 53 54 55 56 57 57 56 54 54 54 54 55 56 56 55 56 58 59 62 64 64 64 63 64 66 66 63 62 66 67 66 65 65 64 60 54 51
49 46 44 42 42 42 42 42 42 42 42 41 41 41 40 41 41 41 41 41 41 41 41 41 41 40 41 42 42 42 43 43 44 45 47 47 48 49 49 49 50 51 51 52 51 52 52 53 54 55 56 58 59 60 60 58 57 56 56 57 58 57 57 59 61 62 62 63 64 65 65 65 67 67 64 63 68 69 66 65 65 63 58 53 50
45 43 42 41 41 41 41 42 42 42 42 42 42 42 42 42 42 42 43 43 43 43 43 43 42 42 43 44 45 45 46 47 48 49 50 51 51 52 52 52 53 53 54 55 55 55 56 56 56 57 57 58 60 62 63 62 61 59 59 59 60 60 60 61 63 65 66 66 66 66 66 66 66 66 63 62 65 68 67 65 63 59 54 50 48
43 41 40 39 40 40 40 41 41 42 42 42 43 43 43 43 43 43 44 44 44 44 44 44 44 45 46 47 47 48 48 50 51 52 53 54 54 54 54 54 55 55 56 56 57 58 59 59 60 60 60 60 61 62 64 65 65 64 63 63 62 62 61 61 62 64 66 68 68 66 65 67 66 64 62 60 63 67 67 62 58 53 49 46 45
41 40 39 39 39 39 40 41 41 42 43 44 44 44 44 44 44 44 44 44 45 45 45 46 46 47 48 49 49 49 50 51 52 53 54 54 54 55 55 56 56 56 56 57 58 59 60 61 62 62 63 63 64 64 64 65 66 67 67 67 65 64 64 63 63 64 65 67 68 67 67 68 65 62 60 58 59 62 62 56 51 46 43 44 45
40 40 39 39 39 40 41 42 43 44 45 45 46 45 45 45 45 45 46 46 46 46 47 47 48 49 49 50 51 51 51 52 53 54 54 54 55 55 56 57 57 57 57 58 59 60 61 62 63 63 64 65 65 65 64 64 66 68 68 69 68 67 66 65 65 66 67 67 67 66 66 64 59 57 59 58 56 56 56 52 47 43 42 44 45
40 40 40 40 41 42 43 43 43 44 44 45 45 45 45 46 46 46 47 47 47 48 48 49 49 50 51 52 53 53 53 53 54 54 54 54 55 56 57 58 58 58 59 59 59 60 61 62 63 63 64 64 64 65 65 65 65 66 67 68 68 69 69 68 67 68 69 68 66 63 59 55 52 53 57 59 58 57 54 48 44 41 40 41 42
40 41 41 41 42 42 43 44 44 44 45 45 45 45 45 46 46 47 48 48 49 49 50 51 51 52 53 53 54 55 55 54 54 54 53 54 54 56 57 58 59 59 59 59 59 60 61 62 63 63 63 62 62 62 63 64 65 65 65 66 67 68 69 69 69 70 69 65 62 59 55 51 50 52 56 59 61 59 53 45 40 38 37 38 38
41 41 41 42 42 42 43 44 44 45 45 45 45 46 46 47 47 48 49 50 50 51 52 53 53 54 54 54 55 55 55 54 53 53 53 53 54 55 57 58 59 59 60 60 60 60 61 61 61 62 61 60 59 59 60 61 63 63 64 65 66 67 68 69 70 71 69 63 59 56 53 51 50 52 57 59 58 55 48 40 36 36 36 36 36
42 42 43 43 43 43 44 44 45 45 46 46 47 47 48 48 49 50 50 51 52 53 53 54 55 55 55 55 55 55 54 54 53 52 52 53 54 56 57 58 59 59 60 60 61 61 61 61 60 60 59 58 57 58 59 60 61 62 63 65 66 67 68 69 69 70 68 63 58 54 52 49 48 52 57 56 53 49 45 40 37 36 34 34 34
42 43 44 44 44 44 44 45 46 46 47 48 49 49 50 50 51 53 53 54 55 55 55 55 55 55 55 55 55 54 54 53 53 52 52 53 54 55 57 58 59 60 60 60 61 61 60 60 59 58 57 57 57 58 59 60 60 62 63 63 64 65 66 66 66 66 65 61 57 54 51 46 46 52 55 53 49 48 46 42 38 34 32 33 35
43 44 44 44 45 45 46 46 47 47 48 49 50 51 52 53 54 55 56 56 56 56 56 56 56 56 56 55 55 55 55 54 54 54 54 54 54 55 56 56 57 59 60 60 60 60 60 59 59 58 58 58 58 59 59 59 61 62 61 60 61 61 60 60 61 62 62 60 56 53 49 44 44 51 53 50 49 51 49 41 34 31 32 34 35
44 44 45 45 46 47 47 48 49 49 50 52 53 55 55 56 56 56 57 57 58 58 57 57 57 58 57 56 56 56 55 56 56 56 56 56 56 56 57 57 57 58 59 58 58 59 59 59 59 60 60 60 60 60 60 59 60 60 59 58 59 59 58 58 57 58 59 57 53 50 47 43 44 50 51 50 51 51 45 36 31 32 33 33 33
45 46 47 48 49 50 50 51 52 53 54 55 57 57 58 58 58 58 58 59 59 59 59 59 59 59 59 58 57 56 56 56 56 56 57 58 58 59 59 59 59 59 59 58 57 57 57 57 58 58 59 59 60 60 60 60 60 59 58 58 58 58 58 58 56 55 56 55 51 48 45 42 43 48 49 50 51 48 39 33 32 33 32 31 32
48 50 51 52 53 53 54 55 56 57 58 58 59 60 60 60 61 61 61 61 62 62 61 61 61 61 61 60 58 56 56 56 56 56 57 58 59 60 61 61 61 61 62 61 60 59 58 57 58 58 58 59 60 61 61 61 60 59 59 58 58 58 57 56 55 54 54 51 48 44 40 39 41 45 48 51 50 42 35 34 35 33 32 32 33
53 54 55 56 57 57 58 59 59 59 59 60 61 62 63 64 64 64 64 64 64 63 63 62 61 61 61 60 59 58 57 56 56 56 56 57 59 60 61 62 62 62 62 62 62 62 61 60 60 60 60 60 61 61 61 59 58 58 57 57 57 56 55 55 54 53 49 45 42 38 34 36 41 46 51 52 46 37 35 37 36 34 33 33 34
58 59 59 60 60 60 60 61 61 62 62 62 63 63 64 64 65 65 65 64 64 63 62 61 60 59 59 58 58 58 58 57 56 56 56 57 58 59 60 61 62 63 63 63 63 63 62 62 62 62 62 61 61 60 58 57 56 55 55 55 54 53 52 51 50 47 43 39 34 30 30 37 44 48 52 51 42 36 38 39 36 35 35 34 34
59 60 61 62 62 63 63 63 64 64 64 64 64 63 63 63 63 63 63 62 63 62 62 62 61 59 59 58 58 59 59 58 57 56 56 57 57 57 58 59 60 61 62 63 63 64 63 63 63 62 61 60 58 57 55 54 54 53 53 53 52 51 50 48 46 42 38 34 29 27 34 44 48 51 52 46 40 39 40 38 35 35 35 34 32
61 62 63 64 64 65 65 65 65 65 65 65 64 63 62 61 62 62 60 60 60 61 61 62 61 60 59 59 58 59 59 58 56 56 56 56 56 56 57 57 58 59 60 61 62 63 63 63 62 61 59 57 54 53 51 51 51 51 51 50 50 49 46 42 40 37 34 30 27 31 42 48 51 53 49 42 40 42 39 35 34 34 35 33 30
62 63 64 65 65 65 65 65 65 64 64 64 64 64 62 61 60 61 60 59 58 59 60 61 60 59 59 59 58 58 58 57 55 55 55 55 55 56 56 56 56 57 58 59 60 61 61 61 59 57 55 52 49 47 46 46 47 49 49 49 48 45 39 34 32 31 29 26 28 39 47 50 51 50 44 41 40 38 33 31 32 34 33 31 28
62 63 64 63 63 64 64 64 64 64 63 63 63 64 64 62 61 60 60 60 59 59 59 60 59 58 59 58 58 58 57 56 55 54 54 54 55 55 55 55 55 56 56 57 59 59 57 55 53 51 48 46 44 42 42 42 45 47 48 47 44 38 31 27 26 26 25 26 34 44 49 50 49 44 40 39 36 31 28 30 32 33 31 28 26
60 61 61 61 61 61 61 62 62 62 63 62 62 63 63 64 63 61 60 60 59 58 58 59 58 57 58 59 59 58 57 55 55 54 54 54 55 55 54 53 53 53 53 54 55 54 51 48 47 46 44 42 41 40 39 40 41 42 41 39 35 30 24 21 21 22 24 29 39 46 48 49 46 41 39 37 33 29 29 31 31 30 28 26 25
58 59 59 60 61 61 61 61 61 62 62 62 61 61 61 62 63 62 61 60 59 58 57 56 56 56 56 58 59 59 57 55 55 54 54 54 55 54 52 50 50 49 49 49 48 47 45 45 44 42 40 39 39 38 38 37 36 35 32 29 25 21 17 15 17 21 26 34 40 44 47 48 43 39 38 36 32 30 31 31 29 27 26 25 26
59 60 61 62 63 63 63 63 63 63 62 61 61 60 60 60 60 61 61 61 61 60 57 55 53 53 54 56 58 58 56 55 54 54 55 55 54 51 49 47 46 45 44 44 44 44 43 42 41 39 38 38 37 36 35 33 31 28 25 22 19 16 13 13 15 20 28 36 41 44 47 45 41 38 37 34 31 30 30 28 26 25 25 26 28
60 61 62 63 64 64 64 65 64 64 64 62 61 61 60 60 59 60 60 61 61 61 59 55 53 52 52 54 55 55 54 54 54 54 55 53 49 47 46 44 43 43 44 44 43 42 41 39 37 36 35 34 33 32 30 27 25 22 19 16 14 12 11 11 13 18 24 30 35 38 39 37 35 33 32 30 29 29 27 25 25 25 26 28 29
61 62 63 64 65 65 65 65 65 64 63 62 61 60 59 59 59 59 59 59 60 59 58 56 54 52 51 52 52 52 52 51 51 52 52 48 43 43 44 44 44 44 42 40 38 36 33 31 29 27 26 25 25 24 22 20 19 17 16 14 13 11 11 11 12 15 18 21 24 26 27 28 28 28 28 28 27 26 24 24 25 27 28 29 30
62 63 64 65 66 66 66 65 65 63 62 60 58 58 57 57 57 58 58 58 58 57 56 55 54 53 52 50 49 48 48 47 46 47 46 43 41 43 45 43 40 37 32 29 27 25 22 20 18 17 16 16 17 17 17 17 16 16 15 14 14 13 13 13 13 14 16 18 20 21 22 22 23 23 24 24 23 23 24 25 27 28 28 29 30
63 64 64 64 64 65 64 64 63 61 60 58 56 56 56 56 56 57 58 57 56 55 54 53 53 53 51 48 45 44 44 42 40 42 42 42 42 42 38 33 30 27 25 23 22 20 18 17 15 14 13 13 14 14 15 15 15 15 14 14 14 14 15 15 15 15 16 17 17 18 18 18 19 19 20 21 23 24 26 26 27 27 28 29 30
63 63 63 62 62 61 61 60 59 59 58 57 56 56 56 56 57 57 57 55 53 52 51 51 51 49 45 42 40 40 40 39 39 40 41 42 42 39 33 27 25 25 25 24 23 22 21 19 17 16 15 14 14 13 13 13 12 12 12 12 12 12 12 12 12 12 12 13 13 14 15 16 17 19 21 23 24 25 25 26 27 28 29 29 30
63 62 61 60 59 58 57 56 56 56 56 56 55 56 56 57 57 56 55 52 49 47 47 46 44 40 37 37 38 40 40 39 40 41 41 41 39 36 32 28 25 23 23 22 22 21 21 19 18 17 16 15 14 13 13 12 11 11 10 10 9 9 9 9 9 10 11 12 13 14 16 18 19 21 23 23 24 25 26 27 28 28 29 30 30
61 60 59 57 56 55 54 54 55 55 55 55 55 56 57 57 56 53 50 46 43 42 42 41 39 36 36 38 40 41 40 38 39 41 40 37 35 32 29 26 22 19 18 19 19 18 18 17 17 16 15 14 14 13 13 12 11 11 10 10 9 9 9 10 11 12 13 14 15 17 18 19 21 22 23 24 25 26 27 28 29 29 30 30 31
58 57 56 54 53 53 53 53 54 54 54 55 55 56 56 54 51 46 42 40 38 37 38 39 40 40 40 38 37 36 35 35 37 37 34 31 29 28 26 24 22 21 20 20 19 18 17 16 16 15 14 13 13 12 12 11 11 11 11 11 11 11 11 12 13 14 15 16 18 19 20 21 23 24 25 26 27 28 29 30 30 31 31 31 32
55 54 53 52 52 52 52 52 52 52 52 52 52 51 50 48 44 41 38 36 35 35 36 37 37 36 35 32 31 31 31 32 32 31 28 26 26 26 25 24 23 23 22 21 19 18 17 16 15 14 14 13 12 12 12 11 11 11 11 12 12 13 14 14 16 17 18 19 20 22 23 24 25 26 27 29 29 30 31 31 32 32 33 33 34
53 52 52 51 51 50 49 48 48 49 49 47 45 44 44 43 40 38 35 34 33 33 33 33 32 30 29 28 27 27 26 26 26 25 25 24 25 24 23 21 20 19 19 18 17 17 16 16 15 15 14 13 13 13 13 13 13 14 14 14 15 16 16 17 18 19 20 21 23 24 25 26 27 28 29 30 31 31 32 32 33 33 34 35 35
51 51 51 51 50 48 45 44 45 45 44 41 38 37 37 36 34 32 30 30 30 30 29 28 27 26 24 24 22 21 21 22 23 24 23 23 22 22 20 19 18 17 16 16 16 15 15 15 15 15 15 15 15 15 15 16 16 16 17 17 18 18 19 20 21 22 23 24 25 26 27 28 29 29 30 31 31 32 32 33 33 34 34 35 35
50 50 50 49 47 44 42 41 41 41 39 37 35 33 31 29 27 25 24 25 25 25 23 22 21 21 20 20 20 21 22 23 24 24 22 21 20 20 19 18 17 16 16 16 16 16 16 16 16 17 17 17 17 17 18 18 18 19 19 20 20 21 21 22 23 24 24 25 26 27 27 28 29 29 30 31 31 32 32 33 33 34 35 35 36
48 48 47 46 43 41 39 39 38 36 35 34 33 31 29 27 23 20 20 20 19 19 19 19 19 20 22 23 23 24 24 24 24 22 20 19 18 17 17 16 16 16 17 17 17 17 18 18 18 18 18 18 18 19 19 20 20 21 21 22 22 22 23 23 24 24 25 25 26 27 27 28 28 29 30 30 31 31 32 33 33 34 35 36 37
45 44 43 40 38 36 35 34 33 32 30 29 28 26 24 21 17 16 16 16 16 16 17 18 18 20 21 22 23 23 23 22 21 19 18 17 17 17 17 17 18 18 18 19 19 19 19 19 18 18 18 18 19 19 20 20 21 21 22 22 22 23 23 23 24 24 25 26 27 27 28 28 28 29 30 31 31 32 33 33 34 35 36 37 38
41 39 37 35 33 32 31 30 29 28 27 27 26 24 20 17 15 14 13 14 15 16 17 17 18 19 20 20 21 21 20 19 18 18 17 18 18 19 19 19 19 19 19 19 18 18 17 17 17 17 18 18 19 19 20 20 21 21 22 22 23 24 24 24 25 26 26 27 27 28 28 28 28 29 30 31 31 32 33 34 35 36 37 37 38
38 36 33 31 29 28 28 27 27 26 26 26 26 24 22 20 19 18 17 17 17 17 17 18 18 18 18 19 19 19 19 19 19 19 19 19 20 20 19 19 18 18 17 17 16 16 16 17 17 18 19 19 20 21 21 22 23 23 24 24 25 25 26 26 26 27 27 27 28 28 28 29 29 30 31 31 32 33 34 35 36 36 37 38 39
35 33 30 28 27 27 26 26 26 26 25 25 25 24 23 22 22 21 21 20 19 19 18 18 18 18 19 19 19 19 20 20 20 19 19 19 18 18 17 17 16 16 16 16 17 17 18 19 20 21 22 23 23 24 24 25 25 25 26 26 26 26 27 27 27 28 28 28 29 29 29 30 30 31 32 32 33 34 35 36 37 38 39 40 41
Wind_Direction
295 300 302 301 299 297 297 297 297 297 297 298 298 298 296 292 288 285 283 284 284 285 286 288 289 290 291 292 295 297 299 302 303 304 305 305 302 298 295 293 292 292 292 290 287 285 282 280 277 276 275 274 273 272 271 273 275 274 270 270 274 274 269 264 267 274 279 281 278 275 273 271 267 265 265 264 263 261 257 253 252 254 257 260 262
300 303 306 306 304 301 300 299 297 296 297 297 296 295 294 291 287 283 281 281 281 283 284 286 287 288 290 290 292 295 297 299 300 301 303 305 304 302 299 295 293 292 291 291 290 288 284 281 278 276 274 273 272 272 271 272 273 271 269 268 267 267 269 269 272 274 274 276 276 271 270 270 268 266 267 267 264 261 257 254 253 256 259 259 259
299 300 302 304 304 303 301 300 298 297 296 295 294 292 291 290 287 283 281 280 280 281 282 283 284 285 287 289 290 293 295 295 297 298 300 302 303 303 301 297 294 292 290 290 290 290 287 285 282 279 276 274 273 272 271 271 271 269 268 267 265 266 268 271 273 274 273 272 271 266 264 266 265 264 264 264 261 258 258 257 255 255 256 256 256
296 295 296 299 301 301 299 298 297 297 296 294 292 291 290 289 286 283 282 282 282 282 282 282 283 283 285 287 288 290 291 292 294 295 297 299 300 301 300 298 295 293 291 290 289 288 287 286 285 282 279 276 274 273 272 270 270 270 268 268 269 269 268 270 273 275 274 272 270 265 262 263 262 260 259 258 257 258 258 257 254 253 253 254 255
290 291 293 295 297 298 297 295 295 295 294 294 292 291 289 287 285 283 284 284 285 285 285 285 285 286 286 287 287 288 289 290 291 293 295 297 298 299 299 297 295 293 292 291 289 288 287 286 286 285 282 279 277 275 274 272 271 271 268 268 270 271 269 270 273 274 271 268 266 264 261 260 259 256 255 255 256 258 257 255 253 252 252 253 255
287 288 290 292 295 295 294 293 293 292 292 291 291 290 289 286 283 284 284 285 286 287 287 288 288 288 289 289 289 289 289 290 291 293 294 296 296 297 297 296 294 292 291 290 290 289 288 287 287 286 284 282 280 278 276 274 272 272 271 269 268 268 269 269 270 272 271 267 264 262 261 261 261 261 261 259 258 258 256 254 253 253 253 254 254
285 286 288 290 292 292 292 291 290 290 289 289 289 289 288 286 284 284 285 285 285 285 285 285 285 286 287 288 289 289 289 289 291 292 294 294 294 294 293 293 292 291 290 289 289 288 288 287 286 285 284 284 284 282 280 277 274 273 273 272 269 266 266 266 267 270 274 275 274 269 265 266 268 268 268 265 260 257 255 255 255 254 254 253 253
285 286 287 289 291 291 290 290 289 288 288 287 287 287 287 286 285 286 286 285 285 285 284 284 285 286 287 288 289 290 290 291 292 293 293 293 293 292 291 290 289 289 288 288 287 286 286 286 286 286 285 284 284 283 282 280 278 276 274 272 271 268 267 267 267 268 273 279 282 274 265 264 265 265 267 267 263 262 263 264 260 256 253 252 253
285 287 288 289 290 289 288 288 287 287 287 287 286 286 286 286 287 287 288 288 288 288 288 289 289 290 291 291 292 292 293 295 296 296 295 295 295 294 293 292 291 290 289 287 286 285 285 285 285 286 286 285 284 283 282 281 280 279 277 274 272 270 268 268 269 269 271 277 282 276 262 258 261 264 267 269 268 268 269 267 262 257 253 251 253
286 287 288 288 287 286 285 285 286 287 287 287 286 286 287 287 288 289 289 290 290 290 290 291 292 293 294 294 295 295 296 298 299 299 299 298 298 297 296 295 294 293 292 290 289 288 286 285 285 285 285 285 284 283 282 281 279 279 278 276 273 272 270 268 267 268 271 275 281 278 265 258 263 269 271 271 269 267 266 266 262 256 250 249 252
287 287 286 285 283 283 283 284 285 286 287 287 287 288 288 288 288 289 289 289 290 290 291 292 292 293 294 294 295 296 297 299 299 300 301 300 299 298 298 297 296 295 294 293 292 290 288 287 285 284 283 283 283 283 282 280 279 278 277 276 274 273 271 269 267 268 271 273 277 278 272 264 264 269 272 269 264 261 262 263 259 252 248 249 252
286 285 284 282 281 281 281 282 284 285 286 287 288 288 288 289 289 289 289 289 290 290 291 291 292 292 293 293 294 295 296 297 299 299 299 299 298 297 296 295 295 294 294 293 293 291 290 289 287 285 284 283 282 282 281 280 279 278 277 276 275 274 272 271 271 271 271 271 271 273 274 271 268 268 270 269 264 260 259 256 253 250 249 250 254
282 281 280 280 280 280 281 282 283 285 286 286 287 288 288 289 289 289 289 290 290 290 291 291 291 291 292 292 292 293 294 296 297 297 296 295 295 294 293 292 291 291 291 291 291 290 290 289 288 287 285 283 281 280 280 280 279 278 277 276 275 275 273 271 271 270 270 270 270 269 271 274 275 272 271 271 266 259 254 252 250 250 251 254 257
278 277 277 278 279 280 281 281 282 284 285 286 287 288 288 288 289 289 289 289 290 290 290 290 290 291 291 291 292 292 293 294 294 294 293 293 292 292 291 290 289 289 288 288 288 288 288 287 287 287 285 284 281 279 278 278 278 277 277 276 275 276 275 273 272 270 269 269 271 273 274 276 279 279 275 270 265 257 252 251 253 255 257 258 258
274 276 276 277 278 278 279 279 281 282 283 285 285 286 287 287 288 288 288 288 289 289 289 290 290 290 291 291 291 291 292 293 293 293 293 292 292 292 291 290 290 289 289 288 287 287 286 286 285 285 285 284 282 280 279 278 278 277 277 276 276 275 275 275 274 271 270 269 270 273 274 274 279 281 274 266 262 257 253 253 255 256 256 256 255
272 274 275 276 277 278 279 279 280 281 281 282 283 284 285 285 286 286 286 287 288 288 288 289 289 290 291 291 291 291 291 292 293 293 293 293 292 292 291 291 290 289 289 288 288 287 286 286 285 284 283 283 283 282 281 279 278 277 277 277 276 275 275 275 274 272 270 269 270 272 274 276 280 279 272 264 259 254 251 251 250 248 248 249 250
270 272 273 274 276 279 280 280 280 280 280 281 281 282 283 284 285 286 286 286 287 288 288 288 289 289 290 290 291 291 290 292 293 293 293 292 292 291 291 290 290 290 289 288 288 287 286 285 285 284 283 283 284 284 283 281 280 278 278 277 277 277 276 275 274 272 271 269 270 274 279 281 280 274 268 262 255 248 246 245 243 242 243 246 249
268 270 272 275 278 280 281 282 282 281 281 281 281 282 283 284 285 286 286 286 286 287 288 288 288 289 290 290 291 291 290 291 292 292 292 291 290 290 289 289 289 289 289 288 287 286 285 284 285 285 286 286 286 286 285 284 282 280 279 278 277 277 277 276 274 273 271 271 273 277 280 281 277 269 262 256 251 247 244 242 240 240 241 246 252
269 272 275 278 280 282 282 282 282 282 282 282 283 283 284 285 286 286 287 288 288 288 289 290 290 290 291 291 291 292 292 292 292 292 291 290 289 288 288 287 288 288 288 287 287 286 285 285 286 287 288 288 288 287 286 284 284 283 281 279 278 277 276 275 273 272 271 271 274 276 278 278 274 266 258 252 248 245 242 238 237 238 240 247 254
272 276 278 281 282 282 282 282 282 283 283 284 285 286 287 287 288 289 290 290 290 291 291 291 291 291 291 291 291 292 292 292 292 291 291 290 288 287 287 287 287 287 287 286 286 287 287 288 288 288 288 288 287 286 285 284 284 283 282 280 280 279 276 273 272 271 270 271 272 273 273 274 270 263 255 249 244 242 239 235 232 234 240 247 254
276 279 281 282 283 283 283 284 284 285 286 286 287 288 289 290 290 291 292 292 292 292 291 291 290 290 290 290 290 290 290 290 290 290 290 290 289 288 289 289 289 288 287 288 288 288 289 288 287 287 286 287 286 285 285 285 284 283 283 283 283 281 278 276 275 273 272 271 270 270 270 269 263 256 250 243 237 234 233 231 232 238 244 249 254
278 280 281 282 283 284 284 285 286 287 287 288 288 289 290 291 291 292 292 292 292 292 292 291 290 290 290 289 289 289 288 288 288 288 288 289 289 290 290 291 291 290 289 289 289 289 289 288 287 286 286 286 286 285 285 284 284 284 285 287 287 286 284 281 279 276 273 271 269 268 267 264 257 249 242 234 228 227 229 232 237 244 249 252 254
279 281 282 284 285 285 286 287 288 288 289 289 290 290 291 292 292 292 293 292 292 292 292 292 291 291 291 291 290 290 289 288 287 286 286 287 288 289 290 291 291 291 291 291 290 289 289 288 287 287 287 287 287 287 286 285 285 284 285 286 287 287 286 284 280 277 274 271 270 269 267 262 253 244 236 226 223 227 232 236 242 246 249 251 253
282 284 286 287 287 288 288 289 290 291 291 291 292 292 292 292 292 293 293 292 293 293 293 293 293 293 293 293 293 292 291 289 288 287 286 286 286 286 287 288 289 290 290 292 292 291 290 289 288 288 288 289 289 288 288 287 286 285 285 284 283 284 283 281 280 278 274 272 271 270 266 258 247 237 228 222 224 229 233 237 241 244 246 249 251
288 289 289 290 290 291 291 292 292 293 293 293 293 293 293 293 293 294 294 294 294 294 294 295 295 295 295 295 294 294 292 292 291 290 288 287 286 286 285 285 286 287 288 289 290 290 290 290 289 289 289 289 289 288 287 287 286 285 285 283 282 281 280 279 278 276 274 272 271 268 260 249 237 227 221 222 226 229 232 237 240 242 245 250 255
291 291 291 292 292 292 292 292 292 292 293 293 293 293 294 294 294 294 295 295 295 295 295 295 295 295 295 295 295 294 294 294 293 292 290 288 287 286 285 284 284 284 285 286 286 287 287 287 287 287 287 286 286 286 285 285 285 285 284 283 281 280 279 277 276 275 275 273 268 261 250 234 223 219 220 225 227 227 231 237 241 244 248 255 260
290 290 291 291 291 291 292 291 291 291 292 292 292 293 293 293 293 294 294 294 294 294 294 294 294 294 294 294 294 294 295 295 294 293 291 290 288 287 285 284 283 283 283 284 284 285 284 284 284 284 284 284 284 284 284 284 284 284 282 281 281 279 278 276 274 273 273 267 258 248 231 216 212 215 221 225 226 226 232 240 246 248 253 260 260
288 289 290 291 291 291 292 292 292 292 292 292 293 293 292 292 292 293 294 294 293 293 293 294 294 293 293 292 293 293 294 294 294 293 293 292 291 290 288 286 284 284 283 284 284 285 284 284 283 283 283 283 284 284 284 284 283 283 282 281 279 278 277 274 272 269 263 254 245 228 210 206 210 217 222 225 225 226 233 243 249 252 257 261 254
290 290 291 292 292 293 293 294 294 294 294 294 293 293 293 293 292 292 292 292 291 291 291 292 292 291 290 291 291 291 291 292 293 292 293 293 293 292 291 289 287 286 286 286 286 286 285 285 284 284 284 285 285 285 285 285 285 284 282 280 278 277 275 272 270 265 257 248 232 207 199 205 214 220 224 226 224 225 234 246 252 255 260 258 246
291 291 292 292 293 294 294 294 294 295 295 294 294 293 293 292 292 292 292 291 290 289 289 289 289 289 288 288 289 288 289 291 291 291 292 293 294 293 292 290 289 288 288 288 288 287 286 286 286 286 287 287 287 287 286 286 286 284 280 276 273 272 269 266 264 259 253 242 214 196 199 210 219 223 225 225 223 228 241 251 254 258 258 250 239
293 293 293 294 294 294 294 294 294 294 294 294 294 294 293 292 292 291 291 291 290 289 288 288 288 286 285 285 286 286 288 289 290 290 290 291 292 293 292 290 289 288 288 288 287 287 287 288 288 289 289 288 286 285 284 284 282 279 275 271 268 264 260 259 256 251 244 225 201 196 206 218 223 224 225 223 226 236 249 254 257 259 253 242 237
295 295 295 295 295 295 295 295 295 295 295 295 295 294 294 293 292 291 290 291 290 290 289 288 287 285 282 282 283 284 286 288 288 289 288 289 290 291 290 289 288 288 288 287 287 287 289 290 289 288 286 285 283 282 280 279 277 274 271 267 262 258 255 255 252 244 231 210 198 202 213 221 225 226 225 224 230 240 250 256 260 254 244 239 241
297 297 297 297 297 297 297 296 296 296 296 296 295 295 294 294 294 292 291 291 291 291 291 290 288 286 284 282 282 282 284 286 288 288 288 287 288 288 288 288 288 288 288 288 289 290 290 288 286 284 282 280 279 278 277 275 273 269 264 260 256 250 246 247 244 233 216 203 202 209 218 223 225 226 225 226 232 242 252 259 255 245 241 243 246
299 299 299 298 298 298 297 297 297 296 296 296 296 295 295 295 295 295 295 294 293 293 293 292 291 288 286 284 283 282 283 285 286 288 288 287 287 287 287 287 288 290 291 291 291 289 286 283 281 279 277 276 275 275 274 271 267 261 254 247 241 234 229 233 237 228 214 207 209 215 220 223 226 225 224 228 238 248 255 254 247 242 246 248 248
299 299 298 298 297 297 297 297 296 296 296 295 295 296 296 296 296 296 296 296 296 295 295 295 293 290 287 285 284 284 284 284 285 287 288 288 288 288 287 288 291 293 292 289 287 284 280 278 276 274 273 273 272 270 267 262 255 247 237 228 220 215 214 221 229 227 222 219 219 221 223 225 226 225 228 236 246 250 250 246 243 247 249 249 250
299 298 298 297 297 297 297 296 296 296 296 295 295 295 296 296 296 296 296 296 296 296 296 295 294 291 289 286 284 284 285 285 284 287 289 289 289 289 289 288 290 291 287 282 279 276 273 270 268 267 265 264 262 259 254 246 237 227 215 203 195 192 195 202 211 217 220 222 222 222 222 223 225 228 235 242 246 246 244 244 247 249 250 251 253
300 299 298 298 297 297 296 296 296 296 295 294 293 294 295 296 296 296 296 295 295 295 295 296 295 292 289 285 282 282 284 285 286 289 291 291 291 290 286 283 283 281 276 270 267 263 257 252 249 247 245 244 241 236 229 222 214 206 197 188 183 182 185 189 195 202 207 210 214 216 219 224 229 235 240 243 244 244 245 247 249 250 252 254 256
301 300 300 299 298 297 297 296 296 296 295 293 292 293 295 296 296 295 296 295 294 293 294 295 295 293 289 284 280 280 283 286 288 291 292 291 288 283 276 270 268 264 259 254 251 245 237 230 225 223 223 222 221 219 214 209 203 198 192 188 185 185 186 188 191 196 200 205 210 216 222 227 233 237 240 242 244 245 247 249 252 254 255 257 258
302 301 300 300 299 298 298 297 297 296 295 294 293 293 294 295 295 295 295 294 292 291 293 295 295 293 288 283 280 281 283 285 287 289 289 287 282 275 266 257 253 251 250 249 247 244 239 233 228 226 223 221 221 219 214 209 204 199 194 190 189 189 189 191 194 199 205 210 216 221 227 232 235 239 241 244 246 249 252 254 256 257 258 259 260
302 301 301 300 299 298 298 298 297 296 296 295 293 293 294 295 295 295 294 291 290 291 294 296 296 293 288 285 283 282 281 281 282 283 280 276 270 264 258 251 246 244 244 243 240 238 237 234 230 227 223 219 217 216 214 211 209 205 201 199 198 197 197 201 205 210 216 222 226 230 234 237 240 243 246 249 252 255 257 258 259 259 260 261 261
302 302 301 301 300 300 300 299 299 297 296 295 294 294 295 296 295 293 291 287 287 291 295 295 293 289 284 282 279 275 271 271 273 272 268 263 257 252 248 243 239 237 238 238 234 232 231 231 230 229 227 224 221 219 216 213 210 207 206 206 206 207 210 214 219 224 228 232 235 239 241 244 247 250 253 255 257 258 260 261 262 262 263 263 263
301 301 301 301 301 301 301 301 300 299 298 297 297 297 297 296 294 290 285 283 286 292 295 293 289 284 278 274 272 269 266 265 265 263 259 255 251 249 247 243 239 237 237 238 237 234 232 231 230 230 230 229 225 222 218 215 212 211 211 213 215 219 223 228 232 236 239 242 245 248 250 252 254 256 258 259 260 261 262 263 264 264 265 265 265
301 301 301 302 302 302 302 302 301 301 301 301 301 300 297 294 291 286 281 279 283 290 293 291 286 278 270 267 266 265 263 260 259 257 255 253 252 252 250 247 245 243 241 241 240 237 234 232 229 225 223 222 220 220 220 221 223 226 228 231 234 236 238 241 244 246 249 251 253 255 256 258 259 260 261 262 263 263 264 264 265 265 266 266 267
301 301 301 301 301 301 302 303 303 304 304 304 304 302 299 294 289 285 281 278 279 283 285 282 275 269 265 264 264 262 259 257 255 254 254 252 251 251 250 249 247 246 246 245 244 241 237 233 229 225 224 224 226 229 231 233 236 239 241 244 246 248 249 251 253 254 255 257 258 259 260 261 262 263 263 264 264 265 266 266 267 267 267 267 268
301 302 301 301 301 301 302 304 305 306 306 306 306 307 304 298 291 285 280 275 272 270 268 266 265 265 267 266 263 259 258 256 255 257 257 254 250 249 249 247 245 244 243 243 242 240 237 235 233 232 232 234 236 239 242 244 246 248 249 251 253 255 257 258 259 260 261 262 262 263 263 264 264 265 266 266 267 267 267 267 267 267 267 268 268
302 302 301 301 301 302 304 306 307 307 307 308 311 314 314 308 297 283 269 261 258 256 256 259 264 268 268 264 260 259 259 259 259 260 258 254 250 248 246 244 242 241 240 240 240 240 241 241 242 243 243 245 247 249 250 252 254 256 258 259 260 261 263 264 264 265 266 266 266 267 267 267 267 267 267 267 267 267 267 267 268 269 269 270 270
303 303 301 301 302 304 307 309 308 307 307 309 312 317 318 312 298 276 257 249 247 250 255 262 266 267 267 266 265 265 263 262 261 258 255 250 248 247 247 247 247 246 246 246 247 248 250 251 252 253 254 255 257 258 259 260 262 263 264 265 265 266 267 267 267 268 268 268 269 269 269 269 269 268 268 268 269 269 269 270 270 271 271 271 272
304 303 302 303 304 307 308 309 307 303 302 303 307 312 315 311 296 272 255 249 251 256 263 267 268 268 269 269 268 266 263 260 259 257 254 253 253 252 253 254 254 255 255 255 255 255 256 257 258 259 260 261 262 263 264 265 265 266 266 267 267 268 269 269 269 269 270 270 270 270 270 270 270 270 270 270 271 271 272 272 272 273 273 273 274
306 304 304 305 306 307 308 308 305 300 297 297 299 302 304 304 297 284 272 269 270 272 274 273 271 271 271 269 267 265 262 258 257 257 257 258 259 260 260 259 258 258 259 259 259 260 261 263 264 266 266 267 267 267 267 268 268 268 269 270 270 271 271 271 272 272 272 272 272 271 271 271 271 271 271 271 271 272 272 273 273 274 275 275 276
309 308 308 308 308 307 307 306 304 301 298 295 295 295 295 295 293 291 287 284 283 281 279 276 274 271 268 266 264 261 259 258 258 259 261 261 261 261 260 259 260 260 262 263 266 268 268 269 270 270 271 271 271 271 271 271 271 272 272 273 273 273 274 274 274 274 274 273 272 272 272 272 272 272 272 272 272 273 273 274 275 276 277 278 279
312 312 313 313 311 310 308 306 304 301 298 295 294 293 292 291 290 289 288 286 285 283 280 277 274 270 268 267 265 264 263 264 264 263 262 261 260 260 260 261 263 264 266 267 268 269 270 271 272 273 273 274 273 273 273 273 273 273 273 274 274 275 276 276 276 275 275 274 274 273 273 273 273 273 273 274 274 275 276 276 277 277 278 278 279
Height
3131 3132 3132 3132 3131 3131 3130 3130 3129 3128 3127 3126 3124 3124 3122 3121 3120 3118 3117 3117 3115 3114 3113 3112 3111 3110 3108 3107 3106 3105 3104 3103 3101 3099 3098 3097 3096 3094 3092 3090 3088 3087 3086 3085 3084 3083 3082 3080 3080 3080 3081 3080 3079 3079 3079 3079 3079 3078 3077 3076 3075 3074 3074 3073 3069 3068 3069 3070 3070 3070 3070 3069 3067 3067 3068 3066 3066 3065 3065 3065 3065 3064 3064 3066 3065
3127 3127 3127 3127 3127 3127 3126 3126 3125 3124 3123 3122 3120 3119 3118 3117 3115 3114 3113 3112 3111 3110 3109 3108 3107 3105 3104 3103 3102 3101 3100 3098 3096 3095 3094 3093 3091 3090 3088 3086 3085 3083 3082 3081 3080 3079 3078 3076 3075 3076 3076 3074 3073 3073 3073 3073 3073 3072 3071 3070 3069 3069 3069 3067 3065 3063 3063 3063 3063 3063 3063 3062 3060 3060 3060 3059 3058 3058 3057 3057 3057 3057 3058 3059 3059
3123 3123 3123 3123 3123 3123 3122 3122 3121 3119 3118 3117 3116 3115 3114 3112 3111 3109 3108 3107 3106 3105 3104 3103 3102 3100 3100 3099 3098 3097 3095 3093 3092 3090 3089 3088 3086 3085 3084 3082 3080 3079 3078 3077 3076 3075 3073 3071 3070 3071 3071 3068 3067 3067 3067 3067 3066 3065 3064 3064 3063 3063 3063 3061 3059 3057 3056 3056 3056 3056 3056 3055 3053 3052 3052 3052 3051 3050 3048 3048 3048 3050 3050 3050 3051
3120 3120 3120 3120 3119 3119 3118 3117 3116 3114 3113 3112 3111 3110 3109 3108 3106 3105 3104 3103 3101 3101 3099 3098 3097 3096 3095 3095 3094 3092 3090 3089 3087 3086 3085 3084 3082 3080 3079 3077 3076 3075 3073 3072 3071 3070 3068 3067 3066 3066 3065 3063 3061 3061 3061 3060 3060 3058 3058 3058 3057 3056 3056 3055 3053 3052 3050 3048 3047 3047 3048 3047 3045 3044 3043 3042 3042 3042 3041 3039 3039 3040 3041 3042 3044
3116 3116 3116 3116 3115 3115 3114 3112 3111 3110 3108 3107 3106 3105 3104 3103 3102 3100 3099 3098 3097 3096 3095 3094 3092 3091 3091 3090 3089 3087 3086 3084 3082 3082 3081 3079 3077 3076 3074 3073 3071 3070 3069 3067 3066 3065 3063 3062 3061 3061 3059 3057 3056 3055 3055 3054 3053 3052 3051 3051 3051 3050 3050 3049 3048 3046 3043 3040 3038 3038 3038 3038 3036 3035 3035 3034 3034 3035 3034 3033 3032 3032 3033 3034 3036
3113 3113 3112 3111 3111 3110 3109 3108 3106 3105 3104 3102 3101 3100 3099 3098 3097 3096 3095 3094 3093 3092 3090 3089 3087 3086 3086 3085 3084 3083 3081 3079 3078 3077 3076 3075 3073 3071 3069 3068 3066 3064 3063 3062 3061 3059 3057 3056 3056 3055 3053 3051 3050 3050 3049 3048 3047 3045 3044 3044 3045 3045 3044 3043 3041 3038 3035 3033 3031 3029 3029 3029 3029 3029 3029 3028 3027 3028 3028 3028 3027 3026 3026 3028 3030
3109 3108 3108 3107 3107 3106 3104 3103 3101 3100 3099 3098 3096 3095 3094 3093 3092 3091 3090 3089 3088 3087 3085 3084 3083 3081 3081 3080 3079 3077 3076 3074 3073 3072 3072 3070 3068 3066 3064 3063 3061 3059 3057 3056 3055 3053 3052 3051 3050 3049 3048 3046 3045 3045 3043 3042 3040 3039 3038 3038 3038 3037 3036 3035 3033 3030 3027 3025 3024 3023 3023 3025 3025 3024 3023 3022 3021 3020 3020 3020 3020 3020 3021 3023 3026
3104 3104 3103 3103 3102 3100 3099 3097 3096 3095 3094 3093 3092 3090 3089 3088 3087 3087 3086 3084 3083 3082 3080 3079 3078 3077 3076 3075 3073 3072 3070 3069 3068 3067 3066 3064 3063 3061 3059 3057 3055 3053 3052 3050 3049 3048 3046 3045 3044 3043 3042 3041 3040 3039 3037 3036 3034 3032 3031 3031 3031 3029 3028 3026 3024 3022 3021 3019 3016 3016 3017 3018 3017 3016 3015 3014 3012 3011 3012 3012 3012 3013 3015 3018 3021
3099 3099 3099 3098 3096 3095 3093 3092 3091 3090 3089 3088 3087 3086 3085 3084 3083 3082 3081 3079 3078 3077 3075 3074 3073 3072 3071 3069 3068 3066 3065 3064 3063 3061 3060 3059 3057 3055 3053 3051 3049 3047 3046 3044 3043 3041 3040 3039 3038 3037 3036 3034 3033 3032 3031 3030 3028 3025 3025 3024 3023 3021 3020 3018 3016 3015 3014 3012 3009 3007 3008 3008 3008 3007 3006 3005 3004 3005 3005 3005 3005 3007 3010 3013 3015
3095 3094 3093 3092 3091 3089 3088 3087 3086 3085 3084 3083 3082 3081 3080 3079 3078 3077 3075 3074 3073 3071 3070 3069 3068 3066 3065 3064 3062 3061 3059 3058 3057 3056 3054 3052 3051 3049 3047 3045 3043 3041 3039 3038 3036 3035 3034 3033 3031 3030 3029 3028 3026 3025 3024 3023 3021 3019 3018 3017 3015 3013 3013 3011 3009 3008 3007 3005 3002 3000 2999 3000 3000 2999 2998 2998 2999 2998 2997 2997 2998 3000 3003 3006 3008
3090 3089 3088 3086 3085 3084 3083 3082 3081 3080 3079 3078 3077 3076 3075 3074 3073 3072 3071 3069 3068 3066 3065 3064 3063 3061 3060 3058 3057 3055 3054 3053 3051 3050 3048 3047 3045 3043 3041 3039 3037 3035 3033 3031 3030 3028 3027 3025 3024 3023 3022 3021 3020 3018 3017 3016 3014 3013 3011 3009 3007 3005 3005 3003 3001 3000 2999 2997 2996 2994 2992 2993 2993 2992 2992 2992 2991 2990 2989 2989 2990 2992 2995 2999 3002
3084 3083 3082 3081 3080 3079 3078 3077 3076 3075 3074 3073 3072 3071 3070 3069 3068 3067 3065 3064 3063 3062 3061 3059 3058 3056 3055 3053 3052 3050 3049 3047 3046 3044 3043 3041 3039 3037 3035 3034 3032 3030 3028 3026 3024 3022 3020 3019 3017 3016 3014 3013 3012 3011 3009 3009 3007 3006 3004 3002 2999 2997 2996 2995 2993 2992 2991 2989 2988 2987 2986 2986 2986 2985 2985 2985 2984 2984 2983 2982 2982 2984 2989 2993 2996
3078 3077 3077 3076 3075 3074 3073 3072 3071 3070 3069 3068 3067 3066 3064 3063 3062 3061 3060 3059 3058 3056 3055 3054 3052 3051 3049 3047 3046 3045 3043 3042 3040 3038 3037 3035 3033 3031 3029 3028 3026 3024 3022 3020 3018 3016 3014 3012 3010 3009 3007 3005 3004 3002 3001 3001 3000 2999 2997 2994 2992 2990 2989 2988 2987 2985 2983 2981 2979 2979 2980 2979 2977 2977 2979 2980 2979 2979 2978 2977 2977 2980 2985 2989 2992
3073 3072 3072 3071 3070 3069 3068 3067 3066 3065 3064 3062 3061 3060 3059 3058 3057 3056 3054 3053 3052 3051 3049 3048 3047 3045 3043 3042 3040 3039 3038 3036 3034 3032 3030 3029 3027 3024 3023 3021 3019 3018 3016 3013 3011 3009 3007 3004 3002 3001 2999 2997 2995 2994 2992 2992 2991 2991 2989 2986 2985 2983 2982 2981 2979 2977 2975 2972 2970 2971 2972 2970 2969 2971 2973 2973 2972 2972 2973 2974 2976 2979 2982 2985 2987
3068 3067 3067 3066 3065 3064 3063 3062 3061 3060 3059 3057 3056 3055 3054 3052 3051 3050 3049 3047 3046 3045 3043 3042 3040 3039 3037 3035 3034 3033 3032 3030 3028 3026 3024 3022 3020 3017 3015 3013 3012 3010 3009 3006 3004 3002 3000 2997 2995 2993 2991 2989 2987 2985 2984 2983 2982 2981 2979 2977 2976 2975 2973 2972 2971 2968 2966 2964 2963 2963 2963 2962 2962 2965 2965 2964 2964 2966 2969 2972 2973 2974 2977 2979 2980
3063 3062 3061 3061 3060 3059 3058 3057 3056 3055 3053 3052 3051 3049 3048 3047 3045 3044 3043 3041 3040 3039 3037 3036 3034 3033 3031 3029 3028 3028 3027 3024 3022 3020 3017 3015 3012 3010 3007 3005 3003 3002 3001 2999 2996 2994 2992 2989 2987 2984 2982 2980 2979 2976 2975 2974 2972 2970 2969 2969 2968 2966 2965 2964 2963 2960 2957 2956 2956 2956 2955 2955 2956 2957 2957 2957 2958 2960 2962 2964 2965 2966 2969 2971 2974
3058 3057 3057 3056 3055 3053 3052 3051 3050 3049 3048 3047 3045 3044 3043 3041 3040 3038 3036 3035 3034 3033 3031 3030 3029 3027 3025 3024 3022 3021 3021 3018 3015 3013 3010 3007 3004 3002 2999 2997 2995 2993 2992 2991 2989 2986 2984 2981 2978 2976 2974 2972 2971 2969 2967 2965 2962 2961 2960 2959 2959 2957 2956 2956 2954 2951 2948 2947 2949 2949 2949 2949 2949 2949 2949 2949 2949 2950 2952 2954 2956 2959 2962 2965 2968
3053 3052 3052 3051 3050 3049 3047 3046 3044 3043 3042 3041 3040 3039 3038 3036 3035 3033 3031 3030 3029 3027 3025 3024 3023 3021 3020 3018 3016 3014 3014 3012 3008 3006 3003 2999 2996 2994 2991 2988 2986 2984 2983 2982 2980 2978 2975 2973 2970 2967 2966 2965 2963 2961 2958 2955 2953 2952 2951 2950 2948 2948 2947 2947 2945 2943 2939 2939 2941 2941 2940 2941 2941 2941 2941 2940 2940 2942 2944 2947 2951 2954 2957 2960 2963
3048 3047 3047 3046 3045 3043 3042 3040 3039 3037 3036 3036 3034 3033 3032 3031 3029 3027 3026 3024 3023 3022 3020 3018 3017 3015 3013 3011 3009 3007 3005 3004 3001 2997 2995 2991 2988 2985 2982 2979 2977 2976 2974 2972 2971 2969 2966 2965 2963 2960 2958 2957 2955 2952 2950 2946 2944 2943 2943 2940 2938 2938 2938 2936 2935 2933 2931 2930 2932 2932 2931 2931 2932 2932 2932 2932 2934 2936 2939 2942 2946 2950 2953 2956 2958
3042 3042 3041 3040 3039 3037 3036 3034 3033 3032 3030 3029 3028 3027 3025 3024 3022 3021 3019 3017 3016 3015 3013 3010 3009 3008 3006 3003 3001 2999 2997 2995 2993 2989 2986 2983 2979 2976 2973 2970 2968 2967 2965 2963 2961 2960 2958 2956 2955 2953 2950 2949 2947 2944 2941 2939 2936 2935 2933 2931 2930 2929 2928 2925 2924 2924 2923 2923 2923 2923 2922 2922 2922 2923 2924 2925 2928 2930 2933 2937 2941 2945 2948 2950 2952
3036 3035 3034 3033 3032 3031 3030 3028 3027 3026 3024 3022 3021 3020 3018 3016 3015 3013 3011 3010 3008 3007 3005 3003 3001 3000 2998 2996 2993 2991 2989 2986 2984 2981 2978 2975 2972 2968 2965 2963 2961 2958 2956 2955 2953 2951 2950 2948 2946 2944 2942 2940 2939 2936 2933 2931 2929 2926 2925 2924 2922 2920 2918 2916 2916 2916 2914 2914 2914 2914 2913 2913 2914 2916 2917 2919 2923 2926 2928 2933 2937 2940 2943 2944 2946
3029 3029 3028 3027 3026 3025 3023 3022 3020 3019 3017 3015 3014 3013 3011 3009 3007 3005 3003 3001 2999 2998 2997 2995 2992 2991 2990 2988 2985 2983 2981 2978 2976 2973 2970 2967 2964 2961 2957 2956 2953 2949 2947 2947 2945 2943 2942 2940 2937 2936 2934 2932 2930 2928 2925 2923 2921 2918 2918 2916 2913 2911 2909 2909 2908 2907 2906 2906 2906 2905 2905 2906 2907 2910 2912 2915 2919 2922 2925 2930 2934 2935 2937 2938 2940
3023 3022 3021 3020 3019 3018 3017 3015 3014 3012 3011 3009 3007 3005 3004 3001 2999 2998 2995 2993 2991 2989 2988 2986 2983 2981 2980 2979 2977 2975 2972 2969 2967 2964 2962 2959 2956 2953 2950 2948 2945 2941 2938 2938 2937 2935 2933 2931 2929 2927 2925 2923 2921 2919 2917 2915 2913 2910 2910 2908 2905 2903 2902 2900 2899 2898 2898 2897 2898 2898 2897 2898 2900 2903 2908 2912 2916 2918 2922 2927 2929 2930 2931 2933 2934
3017 3016 3015 3013 3012 3011 3010 3008 3007 3005 3003 3001 2999 2998 2996 2993 2992 2990 2988 2985 2983 2981 2979 2977 2974 2972 2970 2969 2968 2966 2963 2960 2958 2955 2953 2950 2947 2944 2942 2939 2937 2933 2931 2930 2929 2927 2925 2923 2921 2918 2917 2915 2913 2910 2908 2907 2905 2902 2901 2899 2897 2896 2894 2892 2892 2891 2890 2890 2890 2890 2890 2891 2894 2898 2904 2909 2912 2915 2919 2922 2923 2924 2926 2927 2928
3010 3009 3007 3006 3005 3003 3002 3001 2999 2997 2995 2993 2991 2990 2988 2985 2984 2982 2979 2977 2974 2972 2970 2968 2965 2963 2960 2959 2958 2957 2954 2951 2949 2947 2944 2941 2938 2936 2933 2931 2928 2925 2922 2921 2920 2918 2916 2914 2912 2910 2908 2906 2904 2902 2900 2898 2896 2894 2893 2890 2888 2887 2886 2886 2885 2884 2883 2884 2884 2884 2885 2888 2892 2898 2902 2905 2908 2912 2915 2916 2917 2919 2920 2922 2923
3003 3001 3000 2999 2997 2995 2994 2993 2991 2989 2988 2986 2983 2982 2979 2976 2974 2973 2970 2968 2965 2962 2960 2958 2955 2953 2951 2949 2948 2946 2945 2942 2940 2938 2935 2932 2930 2927 2924 2922 2920 2916 2914 2912 2911 2909 2907 2905 2903 2901 2899 2897 2895 2893 2892 2890 2888 2886 2884 2882 2880 2879 2878 2878 2877 2877 2877 2877 2878 2878 2881 2885 2891 2895 2897 2900 2904 2908 2909 2911 2913 2914 2916 2917 2918
2996 2994 2992 2991 2990 2988 2986 2985 2983 2981 2980 2978 2975 2974 2971 2968 2965 2963 2961 2958 2955 2952 2950 2948 2946 2943 2941 2939 2938 2936 2935 2933 2931 2928 2926 2923 2921 2919 2916 2913 2911 2908 2905 2903 2901 2900 2898 2896 2894 2892 2890 2888 2887 2885 2883 2881 2880 2878 2876 2874 2872 2871 2871 2870 2870 2871 2871 2871 2872 2874 2878 2883 2888 2891 2892 2896 2900 2903 2905 2907 2909 2910 2912 2913 2914
2989 2988 2985 2983 2982 2980 2978 2976 2974 2972 2971 2968 2966 2964 2962 2959 2956 2954 2952 2949 2945 2942 2940 2938 2936 2934 2932 2930 2928 2926 2926 2925 2922 2919 2917 2914 2912 2909 2907 2904 2902 2899 2896 2894 2892 2890 2889 2887 2885 2883 2881 2879 2878 2876 2875 2873 2871 2870 2868 2866 2865 2864 2864 2863 2864 2864 2864 2865 2866 2869 2875 2881 2884 2885 2889 2893 2896 2898 2900 2902 2904 2906 2907 2908 2909
2982 2980 2978 2975 2973 2971 2969 2967 2964 2962 2960 2958 2956 2954 2952 2950 2946 2945 2945 2942 2936 2933 2931 2929 2928 2925 2923 2921 2920 2917 2916 2916 2914 2910 2908 2906 2903 2900 2898 2895 2893 2890 2888 2885 2883 2881 2880 2878 2876 2875 2873 2871 2870 2868 2866 2865 2863 2862 2861 2859 2858 2858 2857 2858 2858 2858 2859 2860 2862 2866 2872 2877 2879 2882 2886 2890 2892 2893 2896 2898 2900 2901 2903 2904 2905
2974 2972 2969 2967 2964 2962 2960 2958 2956 2953 2950 2948 2946 2944 2944 2942 2938 2934 2934 2934 2930 2926 2922 2921 2920 2917 2913 2913 2912 2908 2906 2907 2905 2902 2899 2897 2895 2892 2889 2887 2884 2881 2879 2876 2874 2872 2871 2869 2868 2866 2865 2863 2862 2860 2858 2857 2855 2854 2853 2853 2852 2851 2851 2852 2852 2852 2854 2856 2859 2864 2870 2873 2876 2880 2884 2886 2887 2890 2893 2894 2896 2897 2898 2899 2901
2964 2962 2960 2958 2956 2953 2951 2949 2946 2944 2941 2938 2935 2933 2932 2933 2931 2928 2924 2922 2921 2919 2915 2912 2911 2909 2905 2903 2903 2900 2898 2897 2896 2894 2892 2889 2887 2884 2881 2879 2876 2874 2871 2868 2866 2864 2863 2861 2860 2859 2857 2856 2854 2853 2852 2850 2849 2848 2847 2846 2845 2845 2846 2846 2847 2849 2850 2853 2857 2863 2868 2871 2874 2878 2880 2882 2885 2887 2889 2890 2891 2892 2894 2896 2897
2954 2953 2951 2948 2947 2945 2942 2940 2937 2934 2931 2929 2926 2923 2920 2919 2920 2921 2917 2912 2910 2909 2907 2904 2902 2900 2897 2895 2893 2892 2890 2889 2887 2886 2884 2882 2879 2877 2874 2871 2869 2866 2864 2860 2858 2857 2856 2854 2853 2852 2851 2849 2848 2847 2845 2844 2843 2842 2841 2841 2840 2841 2841 2843 2844 2846 2848 2850 2855 2861 2865 2869 2872 2875 2876 2878 2881 2883 2884 2886 2887 2888 2890 2892 2893
2947 2945 2942 2939 2937 2936 2933 2930 2928 2925 2923 2920 2917 2915 2912 2908 2906 2907 2907 2905 2901 2899 2898 2896 2893 2890 2888 2886 2884 2882 2882 2881 2879 2877 2876 2874 2872 2870 2867 2864 2862 2859 2856 2853 2851 2850 2849 2848 2847 2846 2844 2843 2842 2841 2840 2839 2838 2837 2837 2836 2836 2837 2838 2840 2842 2844 2846 2850 2854 2859 2863 2866 2869 2871 2873 2875 2878 2879 2881 2882 2883 2885 2886 2888 2889
2939 2936 2933 2929 2927 2925 2923 2921 2918 2916 2914 2912 2909 2906 2904 2901 2897 2893 2892 2892 2891 2889 2888 2887 2884 2881 2879 2877 2875 2873 2873 2872 2871 2869 2867 2866 2864 2862 2859 2857 2855 2852 2850 2847 2846 2845 2843 2842 2841 2840 2839 2838 2837 2836 2835 2834 2834 2833 2833 2833 2833 2834 2835 2837 2839 2842 2845 2849 2852 2856 2859 2863 2865 2868 2870 2872 2874 2876 2877 2878 2879 2881 2883 2884 2886
2932 2928 2925 2921 2918 2916 2914 2911 2909 2906 2904 2902 2900 2897 2894 2892 2889 2885 2882 2880 2879 2878 2878 2877 2876 2873 2870 2868 2866 2865 2864 2863 2862 2861 2859 2858 2856 2854 2852 2850 2848 2846 2843 2841 2840 2839 2837 2836 2835 2834 2834 2833 2832 2831 2831 2831 2830 2830 2830 2830 2831 2832 2834 2836 2838 2841 2844 2847 2850 2853 2856 2859 2862 2865 2867 2869 2870 2871 2873 2874 2876 2878 2879 2880 2882
2924 2921 2918 2914 2910 2907 2905 2902 2900 2897 2895 2894 2892 2889 2886 2882 2879 2877 2874 2872 2870 2868 2868 2867 2866 2864 2862 2860 2858 2857 2856 2855 2854 2853 2852 2850 2849 2847 2845 2843 2841 2839 2837 2836 2835 2833 2832 2831 2831 2830 2829 2829 2828 2828 2828 2827 2827 2828 2828 2829 2830 2831 2832 2835 2837 2840 2842 2845 2848 2851 2854 2856 2859 2861 2863 2864 2866 2867 2869 2871 2873 2874 2875 2876 2878
2915 2912 2909 2905 2901 2898 2895 2893 2891 2889 2887 2885 2884 2881 2878 2875 2872 2869 2866 2865 2863 2861 2859 2859 2857 2855 2854 2852 2851 2849 2848 2848 2847 2846 2845 2843 2841 2840 2838 2837 2836 2834 2833 2832 2830 2829 2829 2828 2827 2827 2826 2826 2825 2825 2825 2825 2825 2826 2826 2827 2828 2830 2831 2833 2836 2838 2841 2844 2847 2849 2851 2853 2855 2857 2859 2860 2862 2864 2866 2868 2869 2870 2871 2872 2873
2907 2904 2900 2897 2893 2890 2887 2885 2883 2881 2878 2876 2875 2872 2869 2867 2865 2862 2859 2857 2855 2853 2852 2851 2849 2846 2845 2844 2843 2842 2841 2841 2840 2840 2839 2837 2836 2834 2833 2831 2831 2830 2829 2829 2828 2827 2826 2825 2824 2824 2824 2824 2824 2824 2824 2824 2824 2825 2826 2827 2828 2829 2831 2833 2835 2837 2839 2842 2844 2846 2848 2850 2852 2854 2856 2858 2860 2861 2863 2864 2865 2866 2867 2868 2869
2899 2897 2893 2889 2886 2883 2880 2877 2875 2873 2870 2868 2866 2864 2861 2859 2857 2854 2851 2849 2847 2846 2845 2843 2841 2839 2837 2836 2836 2835 2835 2835 2834 2834 2833 2832 2831 2830 2829 2828 2827 2826 2826 2826 2825 2824 2823 2823 2822 2822 2822 2822 2823 2823 2823 2823 2824 2824 2825 2826 2828 2829 2831 2833 2834 2836 2838 2840 2842 2844 2846 2847 2850 2851 2853 2855 2857 2858 2859 2860 2861 2862 2862 2863 2864
2891 2889 2885 2882 2878 2875 2873 2870 2867 2865 2862 2860 2857 2855 2853 2851 2848 2846 2843 2841 2840 2839 2837 2836 2834 2833 2831 2830 2830 2829 2828 2828 2828 2828 2827 2826 2826 2825 2824 2824 2823 2823 2822 2822 2821 2821 2821 2820 2820 2820 2821 2821 2821 2822 2822 2823 2823 2824 2825 2826 2828 2829 2830 2832 2834 2835 2837 2839 2841 2842 2844 2846 2848 2849 2850 2852 2853 2854 2855 2855 2856 2857 2858 2859 2859
2883 2880 2877 2874 2870 2867 2865 2862 2859 2857 2855 2852 2850 2847 2844 2842 2840 2838 2835 2834 2833 2832 2830 2829 2828 2827 2826 2825 2824 2823 2823 2823 2823 2823 2822 2821 2821 2820 2820 2820 2820 2820 2819 2819 2819 2819 2819 2819 2819 2819 2820 2820 2821 2821 2822 2822 2823 2824 2825 2826 2828 2829 2830 2832 2833 2835 2836 2838 2839 2841 2842 2844 2845 2846 2847 2848 2849 2849 2850 2851 2852 2852 2853 2854 2854
2875 2873 2870 2867 2863 2860 2858 2855 2852 2849 2847 2844 2842 2839 2836 2833 2831 2830 2828 2828 2827 2825 2824 2823 2822 2821 2820 2819 2819 2819 2820 2820 2819 2819 2818 2818 2817 2817 2817 2817 2817 2817 2817 2817 2817 2817 2817 2817 2818 2818 2819 2820 2820 2821 2822 2822 2823 2824 2825 2826 2827 2828 2829 2831 2832 2833 2835 2836 2837 2838 2839 2840 2841 2842 2843 2844 2845 2845 2846 2846 2847 2847 2848 2849 2849
2869 2866 2863 2860 2857 2854 2851 2848 2846 2843 2840 2837 2834 2831 2828 2825 2824 2822 2822 2821 2821 2820 2819 2818 2816 2815 2815 2815 2816 2816 2816 2816 2816 2815 2815 2815 2815 2814 2815 2815 2815 2815 2815 2815 2815 2815 2815 2816 2816 2817 2818 2818 2819 2820 2821 2822 2823 2824 2824 2825 2826 2827 2828 2829 2830 2831 2832 2833 2834 2835 2836 2837 2838 2838 2839 2840 2840 2841 2841 2842 2842 2843 2843 2844 2844
2862 2860 2857 2854 2852 2849 2845 2842 2839 2836 2834 2831 2828 2825 2821 2819 2817 2816 2815 2815 2815 2814 2814 2814 2813 2813 2812 2812 2813 2813 2813 2813 2813 2812 2812 2812 2812 2812 2812 2812 2813 2813 2813 2813 2814 2814 2814 2815 2815 2816 2816 2817 2818 2819 2820 2821 2821 2822 2823 2824 2825 2825 2826 2827 2828 2828 2829 2830 2831 2832 2832 2833 2834 2834 2835 2836 2836 2836 2837 2837 2838 2838 2838 2839 2839
2856 2853 2851 2848 2846 2843 2840 2837 2834 2831 2828 2826 2823 2820 2816 2813 2811 2810 2810 2810 2810 2810 2810 2810 2810 2810 2810 2810 2810 2810 2810 2810 2810 2810 2810 2810 2810 2810 2810 2810 2811 2811 2811 2812 2812 2812 2813 2814 2814 2815 2815 2816 2816 2817 2818 2819 2820 2820 2821 2822 2822 2823 2824 2824 2825 2826 2826 2827 2827 2828 2828 2829 2830 2830 2831 2831 2832 2832 2832 2833 2833 2833 2833 2833 2833
2850 2848 2845 2843 2840 2837 2835 2832 2829 2826 2824 2821 2819 2816 2813 2810 2808 2807 2807 2807 2807 2807 2807 2807 2807 2808 2808 2808 2808 2808 2808 2808 2808 2808 2807 2807 2807 2808 2808 2808 2809 2809 2809 2810 2810 2811 2811 2812 2813 2813 2814 2814 2815 2815 2816 2817 2817 2818 2819 2819 2820 2820 2821 2821 2822 2822 2823 2823 2823 2824 2824 2825 2825 2825 2826 2826 2827 2827 2827 2827 2827 2828 2828 2828 2828
2846 2843 2840 2837 2834 2832 2829 2827 2824 2822 2820 2818 2816 2813 2810 2808 2806 2805 2805 2805 2805 2805 2805 2805 2805 2805 2806 2806 2806 2806 2806 2805 2805 2805 2805 2805 2806 2806 2806 2807 2807 2807 2808 2808 2809 2809 2810 2810 2811 2811 2812 2812 2812 2813 2814 2814 2815 2815 2816 2816 2817 2817 2817 2818 2818 2818 2819 2819 2819 2819 2820 2820 2820 2821 2821 2821 2821 2822 2822 2822 2822 2822 2822 2822 2822
2841 2838 2836 2833 2830 2827 2825 2823 2821 2819 2818 2816 2814 2812 2809 2807 2805 2804 2804 2804 2804 2804 2803 2803 2803 2803 2803 2803 2803 2803 2803 2803 2803 2803 2804 2804 2804 2805 2805 2805 2805 2806 2806 2806 2807 2807 2808 2808 2809 2809 2809 2809 2810 2810 2811 2811 2812 2812 2813 2813 2813 2814 2814 2814 2814 2814 2814 2814 2815 2815 2815 2815 2815 2816 2816 2816 2816 2816 2817 2817 2817 2817 2817 2817 2817
2837 2835 2832 2829 2826 2824 2821 2820 2818 2817 2815 2814 2813 2811 2809 2807 2806 2805 2804 2804 2803 2802 2802 2802 2801 2801 2801 2801 2801 2801 2801 2801 2802 2802 2802 2802 2802 2803 2803 2803 2803 2803 2804 2804 2804 2805 2805 2805 2806 2806 2806 2806 2807 2807 2808 2808 2808 2809 2809 2809 2809 2810 2810 2810 2810 2810 2810 2810 2810 2810 2810 2810 2811 2811 2811 2811 2812 2812 2812 2812 2812 2812 2811 2811 2811
2834 2831 2828 2825 2823 2821 2819 2817 2815 2814 2813 2812 2810 2809 2808 2806 2805 2804 2803 2803 2802 2801 2801 2800 2800 2800 2799 2799 2799 2799 2799 2799 2800 2800 2800 2800 2800 2800 2800 2800 2800 2801 2801 2801 2801 2802 2802 2802 2803 2803 2803 2803 2804 2804 2804 2804 2805 2805 2805 2805 2805 2805 2805 2805 2805 2805 2805 2805 2806 2806 2806 2806 2806 2806 2806 2807 2807 2807 2807 2807 2807 2807 2806 2806 2805
2831 2828 2825 2822 2820 2818 2816 2815 2813 2812 2810 2809 2808 2806 2805 2804 2803 2802 2801 2801 2800 2799 2799 2798 2798 2798 2798 2797 2797 2797 2797 2797 2797 2797 2797 2797 2797 2797 2797 2798 2798 2798 2798 2798 2799 2799 2799 2799 2800 2800 2800 2800 2800 2800 2800 2800 2800 2800 2800 2800 2800 2801 2801 2801 2801 2801 2801 2801 2801 2801 2801 2801 2801 2801 2801 2801 2801 2801 2801 2801 2801 2801 2801 2800 2799